Location: Munkebjergskolens Observatorium
(55.3864°N, 10.3987°E)
Time: 21:31:08
(UTC+01:00)

DELTA 1 DEB - Pass Details

Date: 08 December 2023
Orbit: 783 x 826 km, 98.9° (Epoch: 04 March)

Event Time Altitude Azimuth Distance (km) Brightness Sun altitude
Rises 05:58:52 0° 23° (NNE) 3,374 ? -20.1°
Reaches altitude 10° 06:01:42 10° 37° (NE) 2,440 ? -19.7°
Maximum altitude 06:06:01 24° 90° (E) 1,664 ? -19.1°
Drops below altitude 10° 06:10:19 10° 143° (SE) 2,430 ? -18.5°
Sets 06:13:07 0° 157° (SSE) 3,357 ? -18.1°
